• In United Kingdom
  • List of Countries
  • For 7 days
  • Water Temperature
  • Satellite Maps
  • Weather Map
  • Weather Widgets
  • user-avatar
    Login

    Hourly Weather Fresnillo

    Today, 20 September, Wednesday

    Time Temperature Precipitation Wind Pressure Humidity
    00:00 +19°C° 0.1 mm 1 mps 587 mmHg 69%
    01:00 +19°C° 0.1 mm 1 mps 586 mmHg 70%
    02:00 +19°C° 0.1 mm 1 mps 586 mmHg 72%
    03:00 +18°C° 0 mm 1 mps 586 mmHg 74%
    04:00 +18°C° 0 mm 1 mps 586 mmHg 75%
    05:00 +18°C° 0 mm 1 mps 586 mmHg 76%
    06:00 +19°C° 0 mm 1 mps 587 mmHg 71%
    07:00 +20°C° 0 mm 1 mps 587 mmHg 66%
    08:00 +20°C° 0 mm 2 mps 588 mmHg 60%
    09:00 +23°C° 0.2 mm 2 mps 588 mmHg 54%
    10:00 +24°C° 0.2 mm 2 mps 589 mmHg 49%
    11:00 +26°C° 0.2 mm 3 mps 589 mmHg 43%
    12:00 +26°C° 0.1 mm 3 mps 589 mmHg 41%
    13:00 +27°C° 0.1 mm 3 mps 588 mmHg 40%
    14:00 +27°C° 0.1 mm 3 mps 588 mmHg 39%
    15:00 +26°C° 0.1 mm 3 mps 587 mmHg 41%
    16:00 +26°C° 0.1 mm 3 mps 587 mmHg 43%
    17:00 +25°C° 0.1 mm 3 mps 586 mmHg 45%
    18:00 +24°C° 0.6 mm 2 mps 586 mmHg 50%
    19:00 +23°C° 0.6 mm 2 mps 586 mmHg 55%
    20:00 +21°C° 0.6 mm 2 mps 586 mmHg 60%
    21:00 +20°C° 0.7 mm 2 mps 586 mmHg 63%
    22:00 +19°C° 0.7 mm 2 mps 586 mmHg 67%
    23:00 +19°C° 0.7 mm 3 mps 586 mmHg 70%

    Tomorrow, 21 September, Thursday

    Time Temperature Precipitation Wind Pressure Humidity
    00:00 +18°C° 0.7 mm 2 mps 586 mmHg 73%
    01:00 +18°C° 0.7 mm 2 mps 586 mmHg 77%
    02:00 +18°C° 0.7 mm 1 mps 586 mmHg 80%
    03:00 +18°C° 0.5 mm 1 mps 585 mmHg 81%
    04:00 +16°C° 0.5 mm 1 mps 585 mmHg 83%
    05:00 +16°C° 0.5 mm 1 mps 585 mmHg 84%
    06:00 +18°C° 0 mm 1 mps 586 mmHg 78%
    07:00 +18°C° 0 mm 2 mps 586 mmHg 72%
    08:00 +19°C° 0 mm 2 mps 587 mmHg 67%
    09:00 +21°C° 0.2 mm 2 mps 587 mmHg 58%
    10:00 +23°C° 0.2 mm 2 mps 588 mmHg 49%
    11:00 +25°C° 0.2 mm 3 mps 588 mmHg 40%
    12:00 +26°C° 0.1 mm 3 mps 588 mmHg 37%
    13:00 +27°C° 0.1 mm 3 mps 587 mmHg 34%
    14:00 +28°C° 0.1 mm 3 mps 587 mmHg 31%
    15:00 +27°C° 0 mm 3 mps 587 mmHg 32%
    16:00 +27°C° 0 mm 3 mps 586 mmHg 33%
    17:00 +27°C° 0 mm 3 mps 586 mmHg 35%
    18:00 +25°C° 0 mm 3 mps 586 mmHg 39%
    19:00 +22°C° 0 mm 4 mps 586 mmHg 43%
    20:00 +21°C° 0 mm 4 mps 585 mmHg 47%
    21:00 +20°C° 0 mm 4 mps 585 mmHg 56%
    22:00 +19°C° 0 mm 4 mps 585 mmHg 64%
    23:00 +18°C° 0 mm 4 mps 585 mmHg 72%

    Day after tomorrow, 22 September, Friday

    Time Temperature Precipitation Wind Pressure Humidity
    00:00 +17°C° 0 mm 3 mps 585 mmHg 75%
    01:00 +16°C° 0 mm 3 mps 584 mmHg 78%
    02:00 +16°C° 0 mm 2 mps 584 mmHg 80%
    03:00 +16°C° 0 mm 2 mps 584 mmHg 83%
    04:00 +15°C° 0 mm 2 mps 583 mmHg 85%
    05:00 +15°C° 0 mm 2 mps 583 mmHg 87%
    06:00 +16°C° 0 mm 2 mps 584 mmHg 81%
    07:00 +18°C° 0 mm 2 mps 585 mmHg 74%
    08:00 +19°C° 0 mm 2 mps 586 mmHg 68%
    09:00 +21°C° 0 mm 2 mps 586 mmHg 58%
    10:00 +24°C° 0 mm 2 mps 587 mmHg 49%
    11:00 +25°C° 0 mm 2 mps 587 mmHg 40%
    12:00 +26°C° 0 mm 2 mps 587 mmHg 36%
    13:00 +27°C° 0 mm 3 mps 586 mmHg 33%
    14:00 +28°C° 0 mm 3 mps 586 mmHg 30%
    15:00 +27°C° 0 mm 3 mps 585 mmHg 32%
    16:00 +27°C° 0 mm 3 mps 585 mmHg 34%
    17:00 +26°C° 0 mm 4 mps 585 mmHg 37%
    18:00 +25°C° 0.1 mm 4 mps 585 mmHg 44%
    19:00 +22°C° 0.1 mm 5 mps 585 mmHg 51%
    20:00 +21°C° 0.1 mm 6 mps 585 mmHg 59%
    21:00 +20°C° 0.1 mm 6 mps 584 mmHg 64%
    22:00 +19°C° 0.1 mm 5 mps 584 mmHg 69%
    23:00 +17°C° 0.1 mm 5 mps 584 mmHg 74%

    23 September, Saturday

    Time Temperature Precipitation Wind Pressure Humidity
    00:00 +16°C° 0 mm 5 mps 584 mmHg 76%
    01:00 +17°C° 0 mm 4 mps 583 mmHg 78%
    02:00 +17°C° 0 mm 4 mps 583 mmHg 80%
    03:00 +17°C° 0 mm 3 mps 583 mmHg 82%
    04:00 +16°C° 0 mm 3 mps 583 mmHg 84%
    05:00 +16°C° 0 mm 3 mps 583 mmHg 85%
    06:00 +17°C° 0 mm 3 mps 583 mmHg 81%
    07:00 +18°C° 0 mm 4 mps 584 mmHg 77%
    08:00 +19°C° 0 mm 4 mps 585 mmHg 72%
    09:00 +21°C° 0 mm 4 mps 585 mmHg 64%
    10:00 +23°C° 0 mm 4 mps 586 mmHg 56%
    11:00 +25°C° 0 mm 4 mps 586 mmHg 48%
    12:00 +26°C° 0.2 mm 4 mps 585 mmHg 46%
    13:00 +26°C° 0.2 mm 4 mps 585 mmHg 44%
    14:00 +27°C° 0.2 mm 4 mps 584 mmHg 42%
    15:00 +26°C° 0.4 mm 4 mps 584 mmHg 46%
    16:00 +25°C° 0.4 mm 4 mps 584 mmHg 50%
    17:00 +23°C° 0.4 mm 4 mps 583 mmHg 53%
    18:00 +22°C° 1.4 mm 4 mps 583 mmHg 60%
    19:00 +21°C° 1.4 mm 5 mps 583 mmHg 67%
    20:00 +19°C° 1.4 mm 5 mps 583 mmHg 74%
    21:00 +19°C° 0.7 mm 5 mps 583 mmHg 76%
    22:00 +18°C° 0.7 mm 4 mps 583 mmHg 78%
    23:00 +18°C° 0.7 mm 4 mps 583 mmHg 81%

    24 September, Sunday

    Time Temperature Precipitation Wind Pressure Humidity
    00:00 +18°C° 0.2 mm 3 mps 583 mmHg 82%
    01:00 +17°C° 0.2 mm 3 mps 583 mmHg 83%
    02:00 +17°C° 0.2 mm 3 mps 582 mmHg 84%
    03:00 +17°C° 0 mm 3 mps 582 mmHg 85%
    04:00 +16°C° 0 mm 3 mps 582 mmHg 87%
    05:00 +16°C° 0 mm 3 mps 582 mmHg 88%
    06:00 +17°C° 0 mm 3 mps 583 mmHg 83%
    07:00 +18°C° 0 mm 3 mps 584 mmHg 79%
    08:00 +19°C° 0 mm 3 mps 584 mmHg 74%
    09:00 +20°C° 0.4 mm 4 mps 585 mmHg 68%
    10:00 +22°C° 0.4 mm 4 mps 585 mmHg 63%
    11:00 +23°C° 0.4 mm 4 mps 585 mmHg 57%
    12:00 +24°C° 1.7 mm 3 mps 584 mmHg 57%
    13:00 +24°C° 1.7 mm 3 mps 584 mmHg 57%
    14:00 +24°C° 1.7 mm 3 mps 583 mmHg 57%
    15:00 +22°C° 2.5 mm 3 mps 583 mmHg 62%
    16:00 +21°C° 2.5 mm 2 mps 582 mmHg 68%
    17:00 +20°C° 2.5 mm 2 mps 582 mmHg 73%
    18:00 +19°C° 0.8 mm 2 mps 582 mmHg 76%
    19:00 +20°C° 0.8 mm 1 mps 583 mmHg 79%
    20:00 +19°C° 0.8 mm 1 mps 583 mmHg 82%
    21:00 +19°C° 0.2 mm 1 mps 583 mmHg 83%
    22:00 +18°C° 0.2 mm 2 mps 583 mmHg 83%
    23:00 +18°C° 0.2 mm 3 mps 583 mmHg 83%

    25 September, Monday

    Time Temperature Precipitation Wind Pressure Humidity
    00:00 +17°C° 0 mm 3 mps 582 mmHg 85%
    01:00 +17°C° 0 mm 3 mps 582 mmHg 86%
    02:00 +17°C° 0 mm 3 mps 582 mmHg 88%
    03:00 +16°C° 0 mm 3 mps 582 mmHg 89%
    04:00 +16°C° 0 mm 3 mps 582 mmHg 90%
    05:00 +16°C° 0 mm 3 mps 582 mmHg 92%
    06:00 +17°C° 0 mm 3 mps 583 mmHg 86%
    07:00 +17°C° 0 mm 3 mps 583 mmHg 81%
    08:00 +18°C° 0 mm 3 mps 584 mmHg 75%
    09:00 +20°C° 0 mm 4 mps 584 mmHg 70%
    10:00 +21°C° 0 mm 4 mps 585 mmHg 64%
    11:00 +22°C° 0 mm 4 mps 585 mmHg 59%
    12:00 +23°C° 0.1 mm 4 mps 584 mmHg 55%
    13:00 +25°C° 0.1 mm 4 mps 584 mmHg 52%
    14:00 +25°C° 0.1 mm 4 mps 584 mmHg 49%
    15:00 +25°C° 0.2 mm 4 mps 584 mmHg 51%
    16:00 +24°C° 0.2 mm 3 mps 584 mmHg 53%
    17:00 +24°C° 0.2 mm 3 mps 584 mmHg 54%
    18:00 +22°C° 0.3 mm 3 mps 584 mmHg 60%
    19:00 +21°C° 0.3 mm 3 mps 584 mmHg 65%
    20:00 +19°C° 0.3 mm 3 mps 584 mmHg 70%
    21:00 +19°C° 0 mm 3 mps 583 mmHg 72%
    22:00 +18°C° 0 mm 3 mps 583 mmHg 75%
    23:00 +17°C° 0 mm 3 mps 583 mmHg 77%
    Show more